TimeCST,TemperatureF,Dew PointF,Humidity,Sea Level PressureIn,VisibilityMPH,Wind Direction,Wind SpeedMPH,Gust SpeedMPH,PrecipitationIn,Events,Conditions,WindDirDegrees,DateUTC
12:15 AM,14.0,14.0,100,30.22,10.0,Calm,Calm,-,N/A,,Mostly Cloudy,0,2013-01-03 06:15:00
12:35 AM,15.8,14.0,93,30.22,10.0,Calm,Calm,-,N/A,,Mostly Cloudy,0,2013-01-03 06:35:00
12:55 AM,19.4,15.8,86,30.22,10.0,Calm,Calm,-,N/A,,Mostly Cloudy,0,2013-01-03 06:55:00
1:15 AM,14.0,12.2,93,30.22,10.0,Calm,Calm,-,N/A,,Mostly Cloudy,0,2013-01-03 07:15:00
1:35 AM,14.0,12.2,93,30.23,10.0,Calm,Calm,-,N/A,,Scattered Clouds,0,2013-01-03 07:35:00
1:55 AM,14.0,14.0,100,30.24,10.0,Calm,Calm,-,N/A,,Scattered Clouds,0,2013-01-03 07:55:00
2:15 AM,14.0,14.0,100,30.24,7.0,Calm,Calm,-,N/A,,Mostly Cloudy,0,2013-01-03 08:15:00
2:35 AM,19.4,17.6,93,30.25,10.0,Calm,Calm,-,N/A,,Overcast,0,2013-01-03 08:35:00
2:55 AM,15.8,14.0,93,30.26,10.0,Calm,Calm,-,N/A,,Overcast,0,2013-01-03 08:55:00
3:15 AM,15.8,15.8,100,30.26,10.0,Calm,Calm,-,N/A,,Overcast,0,2013-01-03 09:15:00
3:35 AM,19.4,17.6,93,30.25,10.0,NNW,5.8,-,N/A,,Overcast,340,2013-01-03 09:35:00
3:55 AM,21.2,17.6,86,30.25,10.0,NNW,4.6,-,N/A,,Mostly Cloudy,330,2013-01-03 09:55:00
4:15 AM,17.6,15.8,93,30.26,10.0,Calm,Calm,-,N/A,,Clear,0,2013-01-03 10:15:00
4:35 AM,15.8,14.0,93,30.26,10.0,Calm,Calm,-,N/A,,Clear,0,2013-01-03 10:35:00
4:55 AM,15.8,14.0,93,30.27,10.0,Calm,Calm,-,N/A,,Clear,0,2013-01-03 10:55:00
5:15 AM,15.8,14.0,93,30.27,10.0,Calm,Calm,-,N/A,,Clear,0,2013-01-03 11:15:00
5:35 AM,17.6,15.8,93,30.27,10.0,Calm,Calm,-,N/A,,Clear,0,2013-01-03 11:35:00
5:55 AM,15.8,14.0,93,30.28,10.0,Calm,Calm,-,N/A,,Clear,0,2013-01-03 11:55:00
6:15 AM,19.4,17.6,93,30.29,10.0,Calm,Calm,-,N/A,,Partly Cloudy,0,2013-01-03 12:15:00
6:35 AM,15.8,14.0,93,30.29,10.0,Calm,Calm,-,N/A,,Partly Cloudy,0,2013-01-03 12:35:00
6:55 AM,14.0,14.0,100,30.30,9.0,Calm,Calm,-,N/A,,Clear,0,2013-01-03 12:55:00
7:15 AM,14.0,14.0,100,30.31,10.0,Calm,Calm,-,N/A,,Clear,0,2013-01-03 13:15:00
7:35 AM,14.0,12.2,93,30.32,9.0,Calm,Calm,-,N/A,,Clear,0,2013-01-03 13:35:00
7:55 AM,15.8,15.8,100,30.32,4.0,Calm,Calm,-,N/A,,Clear,0,2013-01-03 13:55:00
8:15 AM,15.8,15.8,100,30.33,5.0,Calm,Calm,-,N/A,,Clear,0,2013-01-03 14:15:00
8:35 AM,15.8,15.8,100,30.33,7.0,Calm,Calm,-,N/A,,Clear,0,2013-01-03 14:35:00
8:55 AM,17.6,17.6,100,30.35,6.0,North,3.5,-,N/A,,Clear,350,2013-01-03 14:55:00
9:15 AM,23.0,19.4,86,30.36,6.0,Calm,Calm,-,N/A,,Clear,0,2013-01-03 15:15:00
9:35 AM,23.0,19.4,86,30.37,6.0,Calm,Calm,-,N/A,,Clear,0,2013-01-03 15:35:00
9:55 AM,23.0,21.2,93,30.38,6.0,NNW,3.5,-,N/A,,Clear,340,2013-01-03 15:55:00
10:15 AM,24.8,23.0,93,30.38,7.0,North,4.6,-,N/A,,Clear,350,2013-01-03 16:15:00
10:35 AM,26.6,23.0,86,30.38,7.0,North,4.6,-,N/A,,Clear,350,2013-01-03 16:35:00
10:55 AM,26.6,23.0,86,30.37,7.0,North,4.6,-,N/A,,Clear,350,2013-01-03 16:55:00
11:15 AM,28.4,24.8,86,30.37,7.0,NNW,4.6,-,N/A,,Clear,340,2013-01-03 17:15:00
11:35 AM,30.2,24.8,80,30.36,8.0,NW,6.9,-,N/A,,Clear,320,2013-01-03 17:35:00
11:55 AM,30.2,24.8,80,30.36,8.0,NW,6.9,-,N/A,,Clear,320,2013-01-03 17:55:00
12:15 PM,32.0,24.8,75,30.35,8.0,WNW,3.5,-,N/A,,Clear,300,2013-01-03 18:15:00
12:35 PM,32.0,26.6,80,30.34,9.0,NW,5.8,-,N/A,,Clear,320,2013-01-03 18:35:00
12:55 PM,33.8,24.8,70,30.34,10.0,NW,6.9,-,N/A,,Clear,310,2013-01-03 18:55:00
1:15 PM,35.6,26.6,70,30.34,10.0,WNW,8.1,-,N/A,,Clear,300,2013-01-03 19:15:00
1:35 PM,35.6,24.8,65,30.34,10.0,WNW,10.4,-,N/A,,Clear,300,2013-01-03 19:35:00
1:55 PM,35.6,24.8,65,30.33,10.0,WNW,9.2,-,N/A,,Clear,300,2013-01-03 19:55:00
2:15 PM,35.6,24.8,65,30.33,10.0,WNW,6.9,-,N/A,,Clear,300,2013-01-03 20:15:00
2:35 PM,37.4,24.8,60,30.34,10.0,WNW,8.1,-,N/A,,Clear,300,2013-01-03 20:35:00
2:55 PM,37.4,24.8,60,30.34,10.0,WNW,6.9,-,N/A,,Clear,300,2013-01-03 20:55:00
3:15 PM,35.6,24.8,65,30.34,10.0,WNW,5.8,-,N/A,,Clear,290,2013-01-03 21:15:00
3:55 PM,37.4,24.8,60,30.34,10.0,NW,8.1,-,N/A,,Scattered Clouds,310,2013-01-03 21:55:00
4:15 PM,37.4,24.8,60,30.35,10.0,NW,5.8,-,N/A,,Mostly Cloudy,310,2013-01-03 22:15:00
4:35 PM,35.6,24.8,65,30.35,10.0,NW,4.6,-,N/A,,Partly Cloudy,320,2013-01-03 22:35:00
4:55 PM,35.6,24.8,65,30.35,10.0,Calm,Calm,-,N/A,,Partly Cloudy,0,2013-01-03 22:55:00
5:15 PM,35.6,24.8,65,30.36,10.0,Calm,Calm,-,N/A,,Partly Cloudy,0,2013-01-03 23:15:00
5:35 PM,32.0,24.8,75,30.36,10.0,Calm,Calm,-,N/A,,Mostly Cloudy,0,2013-01-03 23:35:00
5:55 PM,35.6,24.8,65,30.37,10.0,Calm,Calm,-,N/A,,Overcast,0,2013-01-03 23:55:00
6:15 PM,33.8,24.8,70,30.37,10.0,Calm,Calm,-,N/A,,Overcast,0,2013-01-04 00:15:00
6:35 PM,35.6,24.8,65,30.38,10.0,Calm,Calm,-,N/A,,Overcast,0,2013-01-04 00:35:00
6:55 PM,33.8,24.8,70,30.38,10.0,Calm,Calm,-,N/A,,Overcast,0,2013-01-04 00:55:00
7:15 PM,33.8,24.8,70,30.39,10.0,Calm,Calm,-,N/A,,Overcast,0,2013-01-04 01:15:00
7:35 PM,33.8,24.8,70,30.39,10.0,Calm,Calm,-,N/A,,Overcast,0,2013-01-04 01:35:00
7:55 PM,33.8,24.8,70,30.39,10.0,Calm,Calm,-,N/A,,Overcast,0,2013-01-04 01:55:00
8:15 PM,35.6,24.8,65,30.39,10.0,Calm,Calm,-,N/A,,Overcast,0,2013-01-04 02:15:00
8:35 PM,33.8,24.8,70,30.39,10.0,Calm,Calm,-,N/A,,Overcast,0,2013-01-04 02:35:00
8:55 PM,33.8,24.8,70,30.39,10.0,Calm,Calm,-,N/A,,Overcast,0,2013-01-04 02:55:00
9:15 PM,33.8,24.8,70,30.39,10.0,Calm,Calm,-,N/A,,Overcast,0,2013-01-04 03:15:00
9:35 PM,32.0,24.8,75,30.39,10.0,Calm,Calm,-,N/A,,Mostly Cloudy,0,2013-01-04 03:35:00
9:55 PM,32.0,24.8,75,30.39,10.0,NNW,5.8,-,N/A,,Mostly Cloudy,340,2013-01-04 03:55:00
10:15 PM,32.0,24.8,75,30.39,10.0,NNW,3.5,-,N/A,,Partly Cloudy,330,2013-01-04 04:15:00
10:35 PM,28.4,24.8,86,30.40,10.0,Calm,Calm,-,N/A,,Clear,0,2013-01-04 04:35:00
10:55 PM,30.2,24.8,80,30.40,10.0,NNW,4.6,-,N/A,,Partly Cloudy,330,2013-01-04 04:55:00
11:15 PM,28.4,24.8,86,30.41,10.0,NW,6.9,-,N/A,,Partly Cloudy,320,2013-01-04 05:15:00
11:35 PM,28.4,21.2,74,30.40,10.0,NW,5.8,-,N/A,,Partly Cloudy,310,2013-01-04 05:35:00
11:55 PM,26.6,21.2,80,30.40,10.0,WNW,4.6,-,N/A,,Scattered Clouds,300,2013-01-04 05:55:00